Location: Strawberry
(45.6646°N, 111.9596°W)
Time: 20:13:05
(UTC+00:00)

Vanguard 1 Rocket - Pass Details

Date: 11 October 2022
Orbit: 650 x 4225 km, 34.3° (Epoch: 01 December)

Event Time Altitude Azimuth Distance (km) Brightness Sun altitude
Rises 05:13:08 0° 273° (W) 7,950 12.7 -43.3°
Reaches altitude 10° 05:19:32 10° 268° (W) 6,482 12.0 -44.1°
Enters shadow 05:33:23 39° 230° (SW) 3,319 10.0 -45.6°
Maximum altitude 05:36:12 42° 206° (SSW) 2,922 - -45.9°
Drops below altitude 10° 05:45:21 10° 139° (SE) 3,632 - -46.8°
Sets 05:47:52 0° 132° (SE) 4,280 - -47.0°
